Regional Weather Roundup
Issued by NWS

Home | Current Version | Previous Version | Graphics & Text | Print | Product List | Glossary On
Versions: 1 2 3 4 5 6 7 8 9 10 11 12 13 14 15 16 17 18 19 20 21 22 23 24 25 26 27 28 29 30 31 32 33 34 35 36 37 38 39 40 41 42 43 44 45 46 47 48 49 50
000
ASUS43 KTOP 310608
RWRKS

WEATHER ROUNDUP FOR KANSAS
NATIONAL WEATHER SERVICE GOODLAND KS
100 AM CDT MON AUG 31 2015

NOTE:  "FAIR" INDICATES FEW OR NO CLOUDS BELOW 12,000 FEET WITH NO
SIGNIFICANT WEATHER AND/OR OBSTRUCTIONS TO VISIBILITY.

KSZ001>006-013>018-027>032-041>047-310700-
NORTHWEST KANSAS

CITY           SKY/WX    TMP DP  RH WIND       PRES   REMARKS
GOODLAND       CLEAR     64  47  53 S13       29.99R
6HR MIN TEMP:  63; 6HR MAX TEMP:  87;

HAYS           FAIR      64  55  72 SE6       29.97R
HILL CITY      FAIR      67  60  78 S6        29.97R
6HR MIN TEMP:  67; 6HR MAX TEMP:  90;

RUSSELL        FAIR      66  62  87 SE10      29.95S
6HR MIN TEMP:  66; 6HR MAX TEMP:  83;

$$

KSZ061>065-074>080-084>089-310700-
SOUTHWEST KANSAS

CITY           SKY/WX    TMP DP  RH WIND       PRES   REMARKS
DODGE CITY     FAIR      65  59  81 SE8       29.99R
6HR MIN TEMP:  65; 6HR MAX TEMP:  86;

ELKHART          N/A     67  50  54 S10         N/A
GARDEN CITY    FAIR      63  57  81 SE10      29.98R
6HR MIN TEMP:  63; 6HR MAX TEMP:  84;

GREAT BEND     FAIR      66  59  77 SE7       29.97R
LIBERAL        FAIR      66  50  55 SE7       29.99R
PRATT          FAIR      68  61  77 CALM      29.99R
$$

KSZ066>073-081>083-090>101-310700-
SOUTHEAST KANSAS

CITY           SKY/WX    TMP DP  RH WIND       PRES   REMARKS
CHANUTE        FAIR      71  69  93 CALM      29.96S
6HR MIN TEMP:  69; 6HR MAX TEMP:  81;

COFFEYVILLE    FAIR      71  70  96 CALM      29.95S FOG
6HR MIN TEMP:  71; 6HR MAX TEMP:  84;

HUTCHINSON     FAIR      67  63  87 SE3       29.96S
6HR MIN TEMP:  66; 6HR MAX TEMP:  80;

MEDICINE LODGE   N/A     72  67  84 SE5       29.95S
NEWTON         FAIR      66  61  82 SE6       29.99S
PARSONS        FAIR      69  69 100 CALM      29.97R FOG
6HR MIN TEMP:  69; 6HR MAX TEMP:  82; 6HR PCP: TRACE;

WICHITA INTL   FAIR      72  68  87 SE6       29.96R
6HR MIN TEMP:  72; 6HR MAX TEMP:  82;

WICHITA JABRA  FAIR      68  66  93 SE3       29.97S
6HR MIN TEMP:  68; 6HR MAX TEMP:  81;

WICHITA MCCONL FAIR      71  67  87 E8        29.96S
WINFIELD       FAIR      71  69  93 SE5       29.97S
6HR MIN TEMP:  71; 6HR MAX TEMP:  82;

$$

KSZ007>012-019>026-033>040-048>060-102>105-310700-
NORTHEAST KANSAS

CITY           SKY/WX    TMP DP  RH WIND       PRES   REMARKS
CONCORDIA      FAIR      66  64  93 SE6       29.96F FOG
6HR MIN TEMP:  65; 6HR MAX TEMP:  75;

EMPORIA        FAIR      68  66  93 CALM      29.97S
6HR MIN TEMP:  66; 6HR MAX TEMP:  80;

LAWRENCE       FAIR      68  66  93 CALM      29.96F
6HR MIN TEMP:  67; 6HR MAX TEMP:  82;

MANHATTAN      FAIR      69  66  90 CALM      29.96S
6HR MIN TEMP:  67; 6HR MAX TEMP:  79;

MARYSVILLE     FAIR     N/A N/A N/A CALM      29.96F
OLATHE IND     FAIR      73  70  90 E6        29.97F
6HR MIN TEMP:  72; 6HR MAX TEMP:  81;

OLATHE EXE     FAIR      73  71  93 SE5       29.97S
6HR MIN TEMP:  73; 6HR MAX TEMP:  80;

SALINA         FAIR      68  64  87 S5        29.95S
6HR MIN TEMP:  68; 6HR MAX TEMP:  82;

TOPEKA BILLARD FAIR      68  67  96 CALM      29.96S FOG
6HR MIN TEMP:  67; 6HR MAX TEMP:  80;

TOPEKA FORBES  MOCLDY    70  67  90 CALM      29.96F
6HR MIN TEMP:  68; 6HR MAX TEMP:  81;

$$



USA.gov is the U.S. government's official web portal to all federal, state and local government web resources and services.